| time (UTC) | temp C | wind direction | speed KPH | gust KPH | rain 1hr cm | rain 24hr cm | rain mn cm | humidity % | barometer mb |
| 20260510190100 | 20 | 35 | 12.9 | 20.9 | 0.00 | 0.00 | 0.00 | 48 | 1020.9 |
| 20260510184551 | 20 | 321 | 16.1 | 30.6 | 0.00 | 0.00 | 0.00 | 48 | 1020.8 |
| 20260510183057 | 20 | 22 | 9.7 | 24.1 | 0.00 | 0.00 | 0.00 | 50 | 1020.8 |
| 20260510181548 | 20 | 19 | 19.3 | 40.2 | 0.00 | 0.00 | 0.00 | 50 | 1020.9 |
| 20260510180052 | 20 | 48 | 20.9 | 32.2 | 0.00 | 0.00 | 0.00 | 49 | 1020.8 |
| 20260510174551 | 20 | 60 | 14.5 | 25.7 | 0.00 | 0.00 | 0.00 | 49 | 1020.6 |
| 20260510173043 | 20 | 29 | 14.5 | 29.0 | 0.00 | 0.00 | 0.00 | 49 | 1020.5 |
| 20260510171541 | 20 | 25 | 14.5 | 25.7 | 0.00 | 0.00 | 0.00 | 49 | 1020.4 |
| 20260510170037 | 20 | 318 | 9.7 | 20.9 | 0.00 | 0.00 | 0.00 | 51 | 1020.0 |
| 20260510164537 | 19 | 12 | 11.3 | 30.6 | 0.00 | 0.00 | 0.00 | 51 | 1020.2 |
| 20260510163035 | 18 | 22 | 17.7 | 32.2 | 0.00 | 0.00 | 0.00 | 51 | 1020.3 |
| 20260510161534 | 19 | 331 | 11.3 | 22.5 | 0.00 | 0.00 | 0.00 | 51 | 1020.2 |
| 20260510160032 | 18 | 19 | 16.1 | 33.8 | 0.00 | 0.00 | 0.00 | 52 | 1020.0 |
| 20260510154548 | 18 | 24 | 12.9 | 29.0 | 0.00 | 0.00 | 0.00 | 53 | 1019.9 |
| 20260510153032 | 17 | 13 | 12.9 | 29.0 | 0.00 | 0.00 | 0.00 | 56 | 1019.3 |
| 20260510151528 | 17 | 57 | 9.7 | 22.5 | 0.00 | 0.00 | 0.00 | 57 | 1019.1 |
| 20260510150027 | 16 | 44 | 16.1 | 29.0 | 0.00 | 0.00 | 0.00 | 58 | 1019.0 |
| 20260510144538 | 16 | 10 | 9.7 | 29.0 | 0.00 | 0.00 | 0.00 | 62 | 1019.1 |
| 20260510143036 | 16 | 20 | 12.9 | 30.6 | 0.00 | 0.00 | 0.00 | 63 | 1019.4 |
| 20260510141523 | 16 | 24 | 8.0 | 19.3 | 0.00 | 0.00 | 0.00 | 65 | 1019.5 |
| 20260510140021 | 16 | 27 | 11.3 | 22.5 | 0.00 | 0.00 | 0.00 | 66 | 1019.5 |
| 20260510134521 | 16 | 37 | 9.7 | 24.1 | 0.00 | 0.00 | 0.00 | 68 | 1019.4 |
| 20260510133016 | 16 | 340 | 8.0 | 17.7 | 0.00 | 0.00 | 0.00 | 70 | 1019.1 |
| 20260510131512 | 15 | 34 | 9.7 | 19.3 | 0.00 | 0.00 | 0.00 | 72 | 1018.5 |
| 20260510130013 | 15 | 19 | 6.4 | 19.3 | 0.00 | 0.00 | 0.00 | 73 | 1017.8 |
| 20260510124507 | 15 | 95 | 11.3 | 22.5 | 0.00 | 0.00 | 0.00 | 74 | 1017.6 |
| 20260510123005 | 16 | 60 | 14.5 | 25.7 | 0.00 | 0.00 | 0.00 | 74 | 1017.4 |
| 20260510121504 | 16 | 35 | 4.8 | 22.5 | 0.00 | 0.00 | 0.00 | 75 | 1017.1 |
| 20260510120058 | -17 | 0.0 | 0.0 | 0.00 | 0.00 | 0.00 | 1016.6 | ||
| 20260510114554 | -17 | 0.0 | 0.0 | 0.00 | 0.00 | 0.00 | 1016.4 | ||
| 20260510113049 | -17 | 0.0 | 0.0 | 0.00 | 0.00 | 0.00 | 1015.8 | ||
| 20260510111548 | 16 | 41 | 8.0 | 14.5 | 0.00 | 0.00 | 0.00 | 78 | 1015.6 |
| 20260510110045 | 16 | 30 | 9.7 | 17.7 | 0.00 | 0.00 | 0.00 | 78 | 1015.8 |
| 20260510104540 | 16 | 29 | 9.7 | 19.3 | 0.00 | 0.00 | 0.00 | 77 | 1015.6 |
| 20260510103040 | 16 | 28 | 8.0 | 17.7 | 0.00 | 0.00 | 0.00 | 76 | 1015.5 |
| 20260510101538 | 16 | 348 | 4.8 | 14.5 | 0.00 | 0.00 | 0.00 | 75 | 1015.5 |
| 20260510100034 | 17 | 63 | 8.0 | 12.9 | 0.00 | 0.00 | 0.00 | 73 | 1015.0 |
| 20260510094546 | 17 | 29 | 6.4 | 14.5 | 0.00 | 0.00 | 0.00 | 72 | 1014.9 |
| 20260510093045 | 17 | 35 | 11.3 | 20.9 | 0.00 | 0.00 | 0.00 | 71 | 1014.6 |
| 20260510091536 | 17 | 338 | 6.4 | 12.9 | 0.00 | 0.00 | 0.00 | 72 | 1014.4 |
| 20260510090027 | 18 | 21 | 6.4 | 11.3 | 0.00 | 0.00 | 0.00 | 71 | 1014.0 |
| 20260510084526 | 17 | 49 | 3.2 | 14.5 | 0.00 | 0.00 | 0.00 | 73 | 1013.6 |
| 20260510083023 | 16 | 312 | 0.0 | 0.0 | 0.00 | 0.00 | 0.00 | 81 | 1013.5 |
| 20260510081524 | 16 | 221 | 0.0 | 0.0 | 0.00 | 0.00 | 0.00 | 79 | 1013.4 |
| 20260510080024 | 17 | 221 | 0.0 | 0.0 | 0.00 | 0.00 | 0.00 | 80 | 1013.7 |
| 20260510074519 | 17 | 221 | 0.0 | 0.0 | 0.00 | 0.00 | 0.00 | 80 | 1013.6 |
| 20260510073019 | 17 | 221 | 0.0 | 0.0 | 0.00 | 0.00 | 0.00 | 77 | 1013.7 |
| 20260510071516 | 17 | 279 | 0.0 | 0.0 | 0.00 | 0.00 | 0.00 | 77 | 1013.6 |
| 20260510070021 | 18 | 279 | 0.0 | 0.0 | 0.00 | 0.00 | 0.00 | 75 | 1013.5 |
| 20260510064512 | 18 | 281 | 0.0 | 0.0 | 0.00 | 0.00 | 0.00 | 73 | 1013.5 |
| 20260510063010 | 18 | 323 | 0.0 | 1.6 | 0.00 | 0.00 | 0.00 | 72 | 1013.2 |
| 20260510061508 | 18 | 33 | 0.0 | 0.0 | 0.00 | 0.00 | 0.00 | 72 | 1013.0 |
| 20260510060009 | 19 | 33 | 0.0 | 0.0 | 0.00 | 0.00 | 0.00 | 72 | 1013.0 |
| 20260510054505 | 18 | 21 | 1.6 | 12.9 | 0.00 | 0.00 | 0.00 | 71 | 1012.9 |
| 20260510053105 | 17 | 11 | 1.6 | 6.4 | 0.00 | 0.00 | 0.00 | 82 | 1013.0 |
| 20260510051600 | 17 | 132 | 0.0 | 0.0 | 0.00 | 0.00 | 0.00 | 81 | 1013.0 |
| 20260510044556 | 17 | 132 | 0.0 | 0.0 | 0.00 | 0.00 | 0.00 | 80 | 1013.1 |
| 20260510043103 | 18 | 132 | 0.0 | 0.0 | 0.00 | 0.00 | 0.00 | 79 | 1013.2 |
| 20260510041555 | 18 | 132 | 0.0 | 0.0 | 0.00 | 0.00 | 0.00 | 78 | 1013.1 |
| 20260510040053 | 18 | 132 | 0.0 | 0.0 | 0.00 | 0.00 | 0.00 | 77 | 1012.9 |
| 20260510034553 | 18 | 132 | 0.0 | 0.0 | 0.00 | 0.00 | 0.00 | 77 | 1012.7 |
| 20260510033101 | 18 | 132 | 0.0 | 0.0 | 0.00 | 0.00 | 0.00 | 78 | 1012.5 |
| 20260510031551 | 18 | 132 | 0.0 | 0.0 | 0.00 | 0.00 | 0.00 | 76 | 1012.1 |
| 20260510030048 | 18 | 132 | 0.0 | 0.0 | 0.00 | 0.00 | 0.00 | 75 | 1011.9 |
| 20260510024548 | 18 | 132 | 0.0 | 0.0 | 0.00 | 0.00 | 0.00 | 73 | 1011.8 |
| 20260510023044 | 19 | 132 | 0.0 | 0.0 | 0.00 | 0.00 | 0.00 | 70 | 1011.5 |
| 20260510021549 | 20 | 132 | 0.0 | 0.0 | 0.00 | 0.00 | 0.00 | 69 | 1011.2 |
| 20260510020045 | 20 | 132 | 0.0 | 0.0 | 0.00 | 0.00 | 0.00 | 67 | 1010.8 |
| 20260510014544 | 21 | 132 | 0.0 | 0.0 | 0.00 | 0.00 | 0.00 | 65 | 1010.5 |
| 20260510013049 | 22 | 132 | 0.0 | 0.0 | 0.00 | 0.00 | 0.00 | 63 | 1010.1 |
| 20260510011545 | 22 | 132 | 0.0 | 1.6 | 0.00 | 0.00 | 0.00 | 60 | 1009.9 |
| 20260510010041 | 24 | 144 | 0.0 | 1.6 | 0.00 | 0.00 | 0.00 | 58 | 1009.7 |
| 20260510004543 | 25 | 153 | 0.0 | 6.4 | 0.00 | 0.00 | 0.00 | 56 | 1009.6 |
| 20260510003041 | 26 | 164 | 1.6 | 8.0 | 0.00 | 0.00 | 0.00 | 54 | 1009.6 |
| 20260510001542 | 27 | 151 | 0.0 | 8.0 | 0.00 | 0.00 | 0.00 | 54 | 1009.5 |
| 20260510000047 | 27 | 150 | 3.2 | 8.0 | 0.00 | 0.00 | 0.00 | 53 | 1009.5 |
| 20260509234538 | 27 | 143 | 3.2 | 9.7 | 0.00 | 0.00 | 0.00 | 52 | 1009.4 |
| 20260509233037 | 27 | 164 | 3.2 | 11.3 | 0.00 | 0.00 | 0.00 | 51 | 1009.5 |
| 20260509231540 | 28 | 159 | 8.0 | 12.9 | 0.00 | 0.00 | 0.00 | 50 | 1009.5 |
| 20260509230036 | 29 | 146 | 3.2 | 11.3 | 0.00 | 0.00 | 0.00 | 48 | 1009.5 |
| 20260509224534 | 29 | 155 | 1.6 | 9.7 | 0.00 | 0.00 | 0.00 | 47 | 1009.4 |
| 20260509223034 | 29 | 223 | 1.6 | 9.7 | 0.00 | 0.00 | 0.00 | 45 | 1009.5 |
| 20260509221534 | 29 | 230 | 3.2 | 11.3 | 0.00 | 0.00 | 0.00 | 45 | 1009.4 |
| 20260509220034 | 29 | 159 | 1.6 | 11.3 | 0.00 | 0.00 | 0.00 | 43 | 1009.6 |
| 20260509214530 | 29 | 137 | 4.8 | 9.7 | 0.00 | 0.00 | 0.00 | 45 | 1009.6 |
| 20260509213034 | 29 | 241 | 4.8 | 14.5 | 0.00 | 0.00 | 0.00 | 43 | 1009.7 |
| 20260509211529 | 28 | 278 | 4.8 | 14.5 | 0.00 | 0.00 | 0.00 | 43 | 1009.8 |
| 20260509210027 | 29 | 277 | 3.2 | 9.7 | 0.00 | 0.00 | 0.00 | 45 | 1010.0 |
| 20260509204524 | 28 | 147 | 3.2 | 11.3 | 0.00 | 0.00 | 0.00 | 46 | 1010.2 |
| 20260509203025 | 28 | 229 | 3.2 | 12.9 | 0.00 | 0.00 | 0.00 | 45 | 1010.3 |
| 20260509201520 | 29 | 281 | 1.6 | 11.3 | 0.00 | 0.00 | 0.00 | 44 | 1010.4 |
| 20260509200019 | 28 | 197 | 4.8 | 17.7 | 0.00 | 0.00 | 0.00 | 46 | 1010.7 |
| 20260509194518 | 29 | 270 | 4.8 | 9.7 | 0.00 | 0.00 | 0.00 | 47 | 1010.7 |
| 20260509193025 | 28 | 277 | 4.8 | 12.9 | 0.00 | 0.00 | 0.00 | 46 | 1010.9 |
| 20260509191614 | 28 | 212 | 3.2 | 17.7 | 0.00 | 0.00 | 0.00 | 46 | 1010.9 |